Powrót do katalogu

COSMOS 1275 DEB

AktywnyPO
NORAD 42126·DEBRIS·🇷🇺 Russia

Wystrzelony Jun 4, 1981 z Plesetsk Cosmodrome

Loading…

Następne Przeloty (najbliższe 24 godziny)

TLE

Starzejące sięSource: Space-Track

Epoka: Sep 7, 2026, 07:45 UTC

1 42126U 81053QN  26250.32357285  .00000256  00000-0  30823-3 0  9994
2 42126  83.1689  14.9933 0157267 294.1790  93.0531 13.58511121632900

Śledź COSMOS 1275 DEB w czasie rzeczywistym z AllMySat

Download on the App Store